Time,TemperatureF,DewpointF,PressureIn,WindDirection,WindDirectionDegrees,WindSpeedMPH,WindSpeedGustMPH,Humidity,HourlyPrecipIn,Conditions,Clouds,dailyrainin,SoftwareType,DateUTC
2013-02-17 00:00:00,29.5,18.1,30.11,North,0,0.0,0.2,62,0.00,,,0.00,WUHU216HW,2013-02-17 05:00:00,
2013-02-17 00:05:00,29.2,17.4,30.10,West,270,0.0,0.7,61,0.00,,,0.00,WUHU216HW,2013-02-17 05:05:00,
2013-02-17 00:10:00,29.2,17.7,30.10,SW,225,0.7,0.9,62,0.00,,,0.00,WUHU216HW,2013-02-17 05:10:00,
2013-02-17 00:15:00,29.2,17.7,30.10,NE,45,0.0,0.9,62,0.00,,,0.00,WUHU216HW,2013-02-17 05:15:00,
2013-02-17 00:20:00,29.5,18.8,30.11,SW,225,0.2,1.1,64,0.00,,,0.00,WUHU216HW,2013-02-17 05:20:00,
2013-02-17 00:25:00,29.3,17.9,30.11,NNW,338,0.0,1.1,62,0.00,,,0.00,WUHU216HW,2013-02-17 05:25:00,
2013-02-17 00:30:00,29.2,17.7,30.11,NNW,338,0.0,0.7,62,0.00,,,0.00,WUHU216HW,2013-02-17 05:30:00,
2013-02-17 00:35:00,29.2,17.7,30.11,SW,225,0.0,0.7,62,0.00,,,0.00,WUHU216HW,2013-02-17 05:35:00,
2013-02-17 00:40:00,29.0,17.6,30.11,SW,225,0.0,0.4,62,0.00,,,0.00,WUHU216HW,2013-02-17 05:40:00,
2013-02-17 00:45:00,28.8,17.5,30.11,SSW,203,0.0,0.4,62,0.00,,,0.00,WUHU216HW,2013-02-17 05:45:00,
2013-02-17 00:50:00,28.6,17.3,30.11,SW,225,0.4,0.4,62,0.00,,,0.00,WUHU216HW,2013-02-17 05:50:00,
2013-02-17 00:55:00,28.6,17.3,30.11,NW,315,0.0,0.4,62,0.00,,,0.00,WUHU216HW,2013-02-17 05:55:00,
2013-02-17 01:00:00,28.4,17.1,30.11,NW,315,0.0,0.4,62,0.00,,,0.00,WUHU216HW,2013-02-17 06:00:00,
2013-02-17 01:05:00,28.4,17.8,30.11,SW,225,0.4,1.8,64,0.00,,,0.00,WUHU216HW,2013-02-17 06:05:00,
2013-02-17 01:10:00,28.8,17.8,30.12,NW,315,0.2,1.8,63,0.00,,,0.00,WUHU216HW,2013-02-17 06:10:00,
2013-02-17 01:15:00,28.8,18.2,30.12,North,0,0.0,0.9,64,0.00,,,0.00,WUHU216HW,2013-02-17 06:15:00,
2013-02-17 01:20:00,28.6,17.7,30.12,NNW,338,0.0,1.1,63,0.00,,,0.00,WUHU216HW,2013-02-17 06:20:00,
2013-02-17 01:25:00,28.4,17.8,30.12,NNE,23,0.0,1.1,64,0.00,,,0.00,WUHU216HW,2013-02-17 06:25:00,
2013-02-17 01:30:00,28.3,17.3,30.12,NNW,338,0.2,0.4,63,0.00,,,0.00,WUHU216HW,2013-02-17 06:30:00,
2013-02-17 01:35:00,28.1,17.1,30.12,West,270,0.0,0.2,63,0.00,,,0.00,WUHU216HW,2013-02-17 06:35:00,
2013-02-17 01:40:00,27.9,17.6,30.13,SSW,203,0.0,0.2,65,0.00,,,0.00,WUHU216HW,2013-02-17 06:40:00,
2013-02-17 01:45:00,27.9,17.3,30.13,WNW,293,0.0,0.4,64,0.00,,,0.00,WUHU216HW,2013-02-17 06:45:00,
2013-02-17 01:50:00,27.7,17.1,30.13,East,90,0.0,0.4,64,0.00,,,0.00,WUHU216HW,2013-02-17 06:50:00,
2013-02-17 01:55:00,27.5,16.6,30.13,NW,315,0.0,0.2,63,0.00,,,0.00,WUHU216HW,2013-02-17 06:55:00,
2013-02-17 02:00:00,27.7,17.5,30.13,SW,225,0.0,2.7,65,0.00,,,0.00,WUHU216HW,2013-02-17 07:00:00,
2013-02-17 02:05:00,27.7,17.1,30.13,NNW,338,0.0,2.7,64,0.00,,,0.00,WUHU216HW,2013-02-17 07:05:00,
2013-02-17 02:10:00,27.5,16.9,30.13,North,0,0.0,0.4,64,0.00,,,0.00,WUHU216HW,2013-02-17 07:10:00,
2013-02-17 02:15:00,27.5,16.9,30.13,NNW,338,0.0,0.7,64,0.00,,,0.00,WUHU216HW,2013-02-17 07:15:00,
2013-02-17 02:20:00,27.5,16.9,30.13,East,90,0.0,0.7,64,0.00,,,0.00,WUHU216HW,2013-02-17 07:20:00,
2013-02-17 02:25:00,27.4,17.1,30.13,WNW,293,0.0,0.4,65,0.00,,,0.00,WUHU216HW,2013-02-17 07:25:00,
2013-02-17 02:30:00,27.4,16.7,30.13,ENE,68,0.0,0.4,64,0.00,,,0.00,WUHU216HW,2013-02-17 07:30:00,
2013-02-17 02:35:00,27.2,16.6,30.13,WSW,248,0.0,0.2,64,0.00,,,0.00,WUHU216HW,2013-02-17 07:35:00,
2013-02-17 02:40:00,27.0,16.7,30.13,SSW,203,0.4,0.7,65,0.00,,,0.00,WUHU216HW,2013-02-17 07:40:00,
2013-02-17 02:45:00,27.0,16.7,30.13,NW,315,0.0,0.9,65,0.00,,,0.00,WUHU216HW,2013-02-17 07:45:00,
2013-02-17 02:50:00,27.2,16.9,30.13,WNW,293,0.0,0.9,65,0.00,,,0.00,WUHU216HW,2013-02-17 07:50:00,
2013-02-17 02:55:00,27.0,16.4,30.13,NNW,338,0.0,0.0,64,0.00,,,0.00,WUHU216HW,2013-02-17 07:55:00,
2013-02-17 03:00:00,26.6,16.0,30.13,WSW,248,0.0,0.0,64,0.00,,,0.00,WUHU216HW,2013-02-17 08:00:00,
2013-02-17 03:05:00,26.3,15.7,30.14,WSW,248,0.0,0.0,64,0.00,,,0.00,WUHU216HW,2013-02-17 08:05:00,
2013-02-17 03:10:00,25.7,15.6,30.14,WSW,248,0.0,0.0,65,0.00,,,0.00,WUHU216HW,2013-02-17 08:10:00,
2013-02-17 03:15:00,25.4,15.2,30.14,WSW,248,0.0,0.0,65,0.00,,,0.00,WUHU216HW,2013-02-17 08:15:00,
2013-02-17 03:20:00,25.0,15.2,30.14,WSW,248,0.0,0.0,66,0.00,,,0.00,WUHU216HW,2013-02-17 08:20:00,
2013-02-17 03:25:00,24.8,15.0,30.14,WSW,248,0.0,0.0,66,0.00,,,0.00,WUHU216HW,2013-02-17 08:25:00,
2013-02-17 03:30:00,24.5,14.7,30.14,WSW,248,0.0,0.0,66,0.00,,,0.00,WUHU216HW,2013-02-17 08:30:00,
2013-02-17 03:35:00,24.3,14.9,30.13,South,180,0.0,0.0,67,0.00,,,0.00,WUHU216HW,2013-02-17 08:35:00,
2013-02-17 03:40:00,24.3,14.9,30.13,ESE,113,0.0,0.0,67,0.00,,,0.00,WUHU216HW,2013-02-17 08:40:00,
2013-02-17 03:45:00,24.1,15.0,30.13,NNW,338,0.0,0.0,68,0.00,,,0.00,WUHU216HW,2013-02-17 08:45:00,
2013-02-17 03:50:00,23.9,14.9,30.13,SSE,158,0.0,0.0,68,0.00,,,0.00,WUHU216HW,2013-02-17 08:50:00,
2013-02-17 03:55:00,23.9,14.9,30.13,ESE,113,0.0,0.0,68,0.00,,,0.00,WUHU216HW,2013-02-17 08:55:00,
2013-02-17 04:00:00,23.9,15.2,30.14,SE,135,0.0,0.0,69,0.00,,,0.00,WUHU216HW,2013-02-17 09:00:00,
2013-02-17 04:05:00,23.9,15.2,30.13,SE,135,0.0,0.0,69,0.00,,,0.00,WUHU216HW,2013-02-17 09:05:00,
2013-02-17 04:10:00,23.8,15.0,30.13,ESE,113,0.0,0.0,69,0.00,,,0.00,WUHU216HW,2013-02-17 09:10:00,
2013-02-17 04:15:00,23.6,14.9,30.13,SE,135,0.0,0.0,69,0.00,,,0.00,WUHU216HW,2013-02-17 09:15:00,
2013-02-17 04:20:00,23.4,14.8,30.13,SE,135,0.0,0.0,69,0.00,,,0.00,WUHU216HW,2013-02-17 09:20:00,
2013-02-17 04:25:00,23.2,14.2,30.13,SE,135,0.0,0.0,68,0.00,,,0.00,WUHU216HW,2013-02-17 09:25:00,
2013-02-17 04:30:00,23.0,14.4,30.13,WSW,248,0.0,0.0,69,0.00,,,0.00,WUHU216HW,2013-02-17 09:30:00,
2013-02-17 04:35:00,23.0,14.4,30.13,South,180,0.0,0.0,69,0.00,,,0.00,WUHU216HW,2013-02-17 09:35:00,
2013-02-17 04:40:00,22.9,14.2,30.13,SSE,158,0.0,0.0,69,0.00,,,0.00,WUHU216HW,2013-02-17 09:40:00,
2013-02-17 04:45:00,22.7,14.0,30.14,SSE,158,0.0,0.0,69,0.00,,,0.00,WUHU216HW,2013-02-17 09:45:00,
2013-02-17 04:50:00,22.7,14.0,30.14,SSE,158,0.0,0.0,69,0.00,,,0.00,WUHU216HW,2013-02-17 09:50:00,
2013-02-17 04:55:00,22.5,13.9,30.14,SSE,158,0.0,0.0,69,0.00,,,0.00,WUHU216HW,2013-02-17 09:55:00,
2013-02-17 05:00:00,22.5,13.9,30.14,SSW,203,0.0,0.0,69,0.00,,,0.00,WUHU216HW,2013-02-17 10:00:00,
2013-02-17 05:05:00,22.3,14.0,30.14,SSE,158,0.0,0.0,70,0.00,,,0.00,WUHU216HW,2013-02-17 10:05:00,
2013-02-17 05:10:00,22.3,14.0,30.14,South,180,0.0,0.0,70,0.00,,,0.00,WUHU216HW,2013-02-17 10:10:00,
2013-02-17 05:15:00,22.3,14.0,30.15,SSW,203,0.0,0.0,70,0.00,,,0.00,WUHU216HW,2013-02-17 10:15:00,
2013-02-17 05:20:00,22.0,14.0,30.15,SSW,203,0.0,0.0,71,0.00,,,0.00,WUHU216HW,2013-02-17 10:20:00,
2013-02-17 05:25:00,22.0,14.0,30.15,SSE,158,0.0,0.0,71,0.00,,,0.00,WUHU216HW,2013-02-17 10:25:00,
2013-02-17 05:30:00,22.0,14.0,30.15,SSE,158,0.0,0.0,71,0.00,,,0.00,WUHU216HW,2013-02-17 10:30:00,
2013-02-17 05:35:00,21.8,14.1,30.15,SSE,158,0.0,0.0,72,0.00,,,0.00,WUHU216HW,2013-02-17 10:35:00,
2013-02-17 05:40:00,21.8,14.1,30.15,SSE,158,0.0,0.0,72,0.00,,,0.00,WUHU216HW,2013-02-17 10:40:00,
2013-02-17 05:45:00,21.8,14.1,30.15,SSE,158,0.0,0.0,72,0.00,,,0.00,WUHU216HW,2013-02-17 10:45:00,
2013-02-17 05:50:00,21.6,14.0,30.16,West,270,0.0,0.0,72,0.00,,,0.00,WUHU216HW,2013-02-17 10:50:00,
2013-02-17 05:55:00,21.6,14.0,30.16,West,270,0.0,0.0,72,0.00,,,0.00,WUHU216HW,2013-02-17 10:55:00,
2013-02-17 06:00:00,21.6,14.0,30.16,West,270,0.0,0.0,72,0.00,,,0.00,WUHU216HW,2013-02-17 11:00:00,
2013-02-17 06:05:00,22.0,14.3,30.16,NW,315,0.0,0.0,72,0.00,,,0.00,WUHU216HW,2013-02-17 11:05:00,
2013-02-17 06:10:00,22.0,14.3,30.16,SW,225,0.0,0.0,72,0.00,,,0.00,WUHU216HW,2013-02-17 11:10:00,
2013-02-17 06:15:00,21.8,14.1,30.16,SE,135,0.0,0.0,72,0.00,,,0.00,WUHU216HW,2013-02-17 11:15:00,
2013-02-17 06:20:00,21.6,14.0,30.17,SSE,158,0.0,0.0,72,0.00,,,0.00,WUHU216HW,2013-02-17 11:20:00,
2013-02-17 06:25:00,21.4,13.8,30.17,WSW,248,0.0,0.0,72,0.00,,,0.00,WUHU216HW,2013-02-17 11:25:00,
2013-02-17 06:30:00,21.4,13.8,30.17,SSE,158,0.0,0.0,72,0.00,,,0.00,WUHU216HW,2013-02-17 11:30:00,
2013-02-17 06:35:00,21.2,13.6,30.17,SSE,158,0.0,0.0,72,0.00,,,0.00,WUHU216HW,2013-02-17 11:35:00,
2013-02-17 06:40:00,21.2,13.6,30.18,SSE,158,0.0,0.0,72,0.00,,,0.00,WUHU216HW,2013-02-17 11:40:00,
2013-02-17 06:45:00,21.2,13.9,30.18,SSW,203,0.0,0.0,73,0.00,,,0.00,WUHU216HW,2013-02-17 11:45:00,
2013-02-17 06:50:00,21.6,14.2,30.19,SSW,203,0.4,0.4,73,0.00,,,0.00,WUHU216HW,2013-02-17 11:50:00,
2013-02-17 06:55:00,21.8,14.4,30.19,WSW,248,0.0,0.4,73,0.00,,,0.00,WUHU216HW,2013-02-17 11:55:00,
2013-02-17 07:00:00,22.0,14.6,30.19,SW,225,0.0,0.4,73,0.00,,,0.00,WUHU216HW,2013-02-17 12:00:00,
2013-02-17 07:05:00,22.0,14.6,30.19,SW,225,0.0,0.0,73,0.00,,,0.00,WUHU216HW,2013-02-17 12:05:00,
2013-02-17 07:10:00,22.0,14.3,30.19,SSW,203,0.0,0.0,72,0.00,,,0.00,WUHU216HW,2013-02-17 12:10:00,
2013-02-17 07:15:00,22.0,14.3,30.19,SW,225,0.0,0.0,72,0.00,,,0.00,WUHU216HW,2013-02-17 12:15:00,
2013-02-17 07:20:00,22.0,14.3,30.19,WSW,248,0.0,0.0,72,0.00,,,0.00,WUHU216HW,2013-02-17 12:20:00,
2013-02-17 07:25:00,21.8,14.4,30.19,WSW,248,0.0,0.2,73,0.00,,,0.00,WUHU216HW,2013-02-17 12:25:00,
2013-02-17 07:30:00,21.8,14.4,30.19,SSW,203,0.0,0.2,73,0.00,,,0.00,WUHU216HW,2013-02-17 12:30:00,
2013-02-17 07:35:00,21.6,14.2,30.20,SSW,203,0.0,0.0,73,0.00,,,0.00,WUHU216HW,2013-02-17 12:35:00,
2013-02-17 07:40:00,21.4,14.0,30.20,SE,135,0.0,0.0,73,0.00,,,0.00,WUHU216HW,2013-02-17 12:40:00,
2013-02-17 07:45:00,21.2,13.9,30.20,SE,135,0.0,0.0,73,0.00,,,0.00,WUHU216HW,2013-02-17 12:45:00,
2013-02-17 07:50:00,21.2,13.9,30.20,SSE,158,0.0,0.0,73,0.00,,,0.00,WUHU216HW,2013-02-17 12:50:00,
2013-02-17 07:55:00,21.2,14.2,30.20,SSW,203,0.0,0.0,74,0.00,,,0.00,WUHU216HW,2013-02-17 12:55:00,
2013-02-17 08:00:00,21.2,14.2,30.20,SE,135,0.0,0.0,74,0.00,,,0.00,WUHU216HW,2013-02-17 13:00:00,
2013-02-17 08:05:00,21.4,14.4,30.20,SE,135,0.0,0.0,74,0.00,,,0.00,WUHU216HW,2013-02-17 13:05:00,
2013-02-17 08:10:00,21.8,15.0,30.21,SSE,158,0.0,0.0,75,0.00,,,0.00,WUHU216HW,2013-02-17 13:10:00,
2013-02-17 08:15:00,22.1,15.4,30.21,SSE,158,0.0,0.0,75,0.00,,,0.00,WUHU216HW,2013-02-17 13:15:00,
2013-02-17 08:20:00,23.0,16.3,30.21,SE,135,0.0,0.0,75,0.00,,,0.00,WUHU216HW,2013-02-17 13:20:00,
2013-02-17 08:26:00,23.9,16.8,30.21,North,0,0.2,0.2,74,0.00,,,0.00,WUHU216HW,2013-02-17 13:26:00,
2013-02-17 08:30:00,25.2,17.4,30.21,North,0,0.0,0.4,72,0.00,,,0.00,WUHU216HW,2013-02-17 13:30:00,
2013-02-17 08:36:00,26.6,18.2,30.22,NNW,338,0.2,1.3,70,0.00,,,0.00,WUHU216HW,2013-02-17 13:36:00,
2013-02-17 08:41:00,27.9,18.7,30.22,North,0,0.0,1.3,68,0.00,,,0.00,WUHU216HW,2013-02-17 13:41:00,
2013-02-17 08:46:00,28.4,18.2,30.22,NNW,338,1.1,1.1,65,0.00,,,0.00,WUHU216HW,2013-02-17 13:46:00,
2013-02-17 08:51:00,29.2,17.7,30.22,North,0,0.7,1.1,62,0.00,,,0.00,WUHU216HW,2013-02-17 13:51:00,
2013-02-17 08:56:00,29.3,17.9,30.22,North,0,1.1,2.2,62,0.00,,,0.00,WUHU216HW,2013-02-17 13:56:00,
2013-02-17 09:01:00,29.9,17.6,30.22,WNW,293,1.6,2.2,60,0.00,,,0.00,WUHU216HW,2013-02-17 14:01:00,
2013-02-17 09:06:00,30.4,18.2,30.23,North,0,0.9,1.8,60,0.00,,,0.00,WUHU216HW,2013-02-17 14:06:00,
2013-02-17 09:11:00,31.0,17.9,30.23,SE,135,0.9,1.1,58,0.00,,,0.00,WUHU216HW,2013-02-17 14:11:00,
2013-02-17 09:16:00,31.3,17.4,30.23,West,270,0.2,2.5,56,0.00,,,0.00,WUHU216HW,2013-02-17 14:16:00,
2013-02-17 10:15:00,38.5,14.3,30.24,NNW,338,4.5,4.5,37,0.00,,,0.00,WUHU216HW,2013-02-17 15:15:00,
2013-02-17 10:20:00,38.5,13.7,30.24,WNW,293,1.3,4.5,36,0.00,,,0.00,WUHU216HW,2013-02-17 15:20:00,
2013-02-17 10:25:00,38.5,13.1,30.24,NNW,338,2.5,4.7,35,0.00,,,0.00,WUHU216HW,2013-02-17 15:25:00,
2013-02-17 10:30:00,39.4,13.2,30.24,NNW,338,2.0,4.9,34,0.00,,,0.00,WUHU216HW,2013-02-17 15:30:00,
2013-02-17 10:35:00,39.2,11.7,30.24,NW,315,2.2,6.3,32,0.00,,,0.00,WUHU216HW,2013-02-17 15:35:00,
2013-02-17 10:40:00,38.9,12.1,30.24,East,90,2.9,6.3,33,0.00,,,0.00,WUHU216HW,2013-02-17 15:40:00,
2013-02-17 10:45:00,39.2,12.4,30.24,NNW,338,1.8,6.3,33,0.00,,,0.00,WUHU216HW,2013-02-17 15:45:00,
2013-02-17 10:50:00,40.0,13.1,30.24,North,0,4.7,6.3,33,0.00,,,0.00,WUHU216HW,2013-02-17 15:50:00,
2013-02-17 10:55:00,40.3,13.3,30.24,NNE,23,2.9,4.7,33,0.00,,,0.00,WUHU216HW,2013-02-17 15:55:00,
2013-02-17 11:00:00,40.7,13.7,30.24,ENE,68,1.1,4.0,33,0.00,,,0.00,WUHU216HW,2013-02-17 16:00:00,
2013-02-17 11:05:00,40.7,12.4,30.24,SSW,203,0.9,4.0,31,0.00,,,0.00,WUHU216HW,2013-02-17 16:05:00,
2013-02-17 11:10:00,40.5,12.3,30.24,North,0,0.7,4.7,31,0.00,,,0.00,WUHU216HW,2013-02-17 16:10:00,
2013-02-17 11:15:00,40.9,12.5,30.24,North,0,1.6,4.7,31,0.00,,,0.00,WUHU216HW,2013-02-17 16:15:00,
2013-02-17 11:20:00,40.9,13.2,30.24,North,0,1.3,5.6,32,0.00,,,0.00,WUHU216HW,2013-02-17 16:20:00,
2013-02-17 11:25:00,41.0,13.3,30.24,NNE,23,2.5,5.6,32,0.00,,,0.00,WUHU216HW,2013-02-17 16:25:00,
2013-02-17 11:30:00,41.8,12.6,30.24,NNW,338,2.2,4.9,30,0.00,,,0.00,WUHU216HW,2013-02-17 16:30:00,
2013-02-17 11:35:00,41.2,12.3,30.24,WNW,293,2.5,6.7,30,0.00,,,0.00,WUHU216HW,2013-02-17 16:35:00,
2013-02-17 11:40:00,41.8,13.3,30.24,NNW,338,4.3,6.7,31,0.00,,,0.00,WUHU216HW,2013-02-17 16:40:00,
2013-02-17 11:45:00,42.5,14.6,30.24,North,0,1.6,4.9,32,0.00,,,0.00,WUHU216HW,2013-02-17 16:45:00,
2013-02-17 11:50:00,42.5,13.2,30.24,SW,225,1.1,4.9,30,0.00,,,0.00,WUHU216HW,2013-02-17 16:50:00,
2013-02-17 11:55:00,43.2,13.9,30.24,NNE,23,1.6,3.6,30,0.00,,,0.00,WUHU216HW,2013-02-17 16:55:00,
2013-02-17 12:00:00,43.2,13.0,30.24,WNW,293,1.8,3.4,29,0.00,,,0.00,WUHU216HW,2013-02-17 17:00:00,
2013-02-17 12:05:00,42.7,12.4,30.24,SE,135,2.9,3.4,29,0.00,,,0.00,WUHU216HW,2013-02-17 17:05:00,
2013-02-17 12:10:00,41.8,11.7,30.24,WNW,293,1.8,8.3,29,0.00,,,0.00,WUHU216HW,2013-02-17 17:10:00,
2013-02-17 12:15:00,41.9,12.8,30.24,ENE,68,1.3,8.3,30,0.00,,,0.00,WUHU216HW,2013-02-17 17:15:00,
2013-02-17 12:20:00,42.7,12.4,30.23,SW,225,2.5,6.3,29,0.00,,,0.00,WUHU216HW,2013-02-17 17:20:00,
2013-02-17 12:25:00,43.6,13.2,30.23,NW,315,1.8,4.3,29,0.00,,,0.00,WUHU216HW,2013-02-17 17:25:00,
2013-02-17 12:30:00,43.7,13.4,30.23,NE,45,1.1,4.3,29,0.00,,,0.00,WUHU216HW,2013-02-17 17:30:00,
2013-02-17 12:35:00,43.6,12.3,30.23,NNW,338,2.9,4.0,28,0.00,,,0.00,WUHU216HW,2013-02-17 17:35:00,
2013-02-17 12:40:00,43.9,13.6,30.22,SSE,158,1.8,4.0,29,0.00,,,0.00,WUHU216HW,2013-02-17 17:40:00,
2013-02-17 12:45:00,44.6,14.2,30.22,NNE,23,1.3,4.9,29,0.00,,,0.00,WUHU216HW,2013-02-17 17:45:00,
2013-02-17 12:50:00,45.4,14.9,30.21,ENE,68,2.7,4.9,29,0.00,,,0.00,WUHU216HW,2013-02-17 17:50:00,
2013-02-17 12:55:00,44.6,12.4,30.21,SSW,203,1.1,4.7,27,0.00,,,0.00,WUHU216HW,2013-02-17 17:55:00,
2013-02-17 13:00:00,45.0,13.7,30.21,NW,315,5.4,5.4,28,0.00,,,0.00,WUHU216HW,2013-02-17 18:00:00,
2013-02-17 13:05:00,44.6,12.4,30.21,ENE,68,3.6,6.5,27,0.00,,,0.00,WUHU216HW,2013-02-17 18:05:00,
2013-02-17 13:10:00,45.0,11.8,30.21,SSE,158,1.3,6.5,26,0.00,,,0.00,WUHU216HW,2013-02-17 18:10:00,
2013-02-17 13:15:00,45.2,12.9,30.21,NE,45,2.9,3.6,27,0.00,,,0.00,WUHU216HW,2013-02-17 18:15:00,
2013-02-17 13:20:00,45.4,13.1,30.20,North,0,1.8,3.6,27,0.00,,,0.00,WUHU216HW,2013-02-17 18:20:00,
2013-02-17 13:25:00,45.7,13.3,30.20,SW,225,1.6,3.4,27,0.00,,,0.00,WUHU216HW,2013-02-17 18:25:00,
2013-02-17 13:30:00,45.7,13.3,30.20,East,90,2.0,3.8,27,0.00,,,0.00,WUHU216HW,2013-02-17 18:30:00,
2013-02-17 13:35:00,45.0,12.7,30.20,SSE,158,2.0,4.9,27,0.00,,,0.00,WUHU216HW,2013-02-17 18:35:00,
2013-02-17 13:40:00,45.4,14.0,30.20,SSW,203,2.2,6.7,28,0.00,,,0.00,WUHU216HW,2013-02-17 18:40:00,
2013-02-17 13:45:00,45.7,13.3,30.20,SE,135,3.8,6.7,27,0.00,,,0.00,WUHU216HW,2013-02-17 18:45:00,
2013-02-17 13:50:00,45.7,13.3,30.19,East,90,1.1,7.8,27,0.00,,,0.00,WUHU216HW,2013-02-17 18:50:00,
2013-02-17 13:55:00,45.9,13.5,30.19,NE,45,1.1,7.8,27,0.00,,,0.00,WUHU216HW,2013-02-17 18:55:00,
2013-02-17 14:00:00,45.9,13.5,30.19,North,0,5.4,5.4,27,0.00,,,0.00,WUHU216HW,2013-02-17 19:00:00,
2013-02-17 14:05:00,45.7,13.3,30.19,NE,45,0.9,6.3,27,0.00,,,0.00,WUHU216HW,2013-02-17 19:05:00,
2013-02-17 14:10:00,46.1,13.7,30.19,North,0,1.8,6.3,27,0.00,,,0.00,WUHU216HW,2013-02-17 19:10:00,
2013-02-17 14:15:00,45.9,13.5,30.18,West,270,1.1,3.6,27,0.00,,,0.00,WUHU216HW,2013-02-17 19:15:00,
2013-02-17 14:20:00,46.3,14.8,30.18,NNE,23,0.9,3.6,28,0.00,,,0.00,WUHU216HW,2013-02-17 19:20:00,
2013-02-17 14:25:00,46.3,12.0,30.18,West,270,2.2,5.1,25,0.00,,,0.00,WUHU216HW,2013-02-17 19:25:00,
2013-02-17 14:30:00,46.1,14.6,30.18,NNW,338,2.0,5.1,28,0.00,,,0.00,WUHU216HW,2013-02-17 19:30:00,
2013-02-17 14:35:00,46.1,14.6,30.18,ENE,68,0.2,4.5,28,0.00,,,0.00,WUHU216HW,2013-02-17 19:35:00,
2013-02-17 14:40:00,46.4,15.0,30.18,SE,135,0.4,3.6,28,0.00,,,0.00,WUHU216HW,2013-02-17 19:40:00,
2013-02-17 14:45:00,46.8,15.2,30.17,WSW,248,1.8,5.1,28,0.00,,,0.00,WUHU216HW,2013-02-17 19:45:00,
2013-02-17 14:50:00,45.7,13.3,30.17,NNW,338,1.3,5.1,27,0.00,,,0.00,WUHU216HW,2013-02-17 19:50:00,
2013-02-17 14:55:00,45.7,14.3,30.17,SW,225,1.1,5.4,28,0.00,,,0.00,WUHU216HW,2013-02-17 19:55:00,
2013-02-17 15:00:00,45.7,13.3,30.17,SW,225,1.8,5.4,27,0.00,,,0.00,WUHU216HW,2013-02-17 20:00:00,
2013-02-17 15:05:00,45.5,13.2,30.17,West,270,2.2,4.9,27,0.00,,,0.00,WUHU216HW,2013-02-17 20:05:00,
2013-02-17 15:10:00,45.7,14.3,30.17,North,0,3.4,4.9,28,0.00,,,0.00,WUHU216HW,2013-02-17 20:10:00,
2013-02-17 15:15:00,45.7,14.3,30.17,WNW,293,0.4,5.8,28,0.00,,,0.00,WUHU216HW,2013-02-17 20:15:00,
2013-02-17 15:20:00,45.9,15.3,30.17,ESE,113,1.8,5.8,29,0.00,,,0.00,WUHU216HW,2013-02-17 20:20:00,
2013-02-17 15:25:00,45.9,14.4,30.17,North,0,2.0,8.9,28,0.00,,,0.00,WUHU216HW,2013-02-17 20:25:00,
2013-02-17 15:30:00,45.7,13.3,30.16,West,270,1.3,8.9,27,0.00,,,0.00,WUHU216HW,2013-02-17 20:30:00,
2013-02-17 15:35:00,45.7,14.3,30.17,ESE,113,1.1,5.1,28,0.00,,,0.00,WUHU216HW,2013-02-17 20:35:00,
2013-02-17 15:40:00,45.9,15.3,30.16,North,0,0.9,2.9,29,0.00,,,0.00,WUHU216HW,2013-02-17 20:40:00,
2013-02-17 15:45:00,45.7,15.2,30.16,NNW,338,1.3,4.0,29,0.00,,,0.00,WUHU216HW,2013-02-17 20:45:00,
2013-02-17 15:50:00,45.9,16.3,30.16,NW,315,0.7,4.0,30,0.00,,,0.00,WUHU216HW,2013-02-17 20:50:00,
2013-02-17 15:55:00,46.1,16.4,30.16,West,270,1.3,2.2,30,0.00,,,0.00,WUHU216HW,2013-02-17 20:55:00,
2013-02-17 16:00:00,46.1,15.5,30.16,NNW,338,2.0,3.8,29,0.00,,,0.00,WUHU216HW,2013-02-17 21:00:00,
2013-02-17 16:05:00,46.1,15.5,30.16,East,90,0.7,3.8,29,0.00,,,0.00,WUHU216HW,2013-02-17 21:05:00,
2013-02-17 16:10:00,46.1,15.5,30.16,NNE,23,0.7,2.5,29,0.00,,,0.00,WUHU216HW,2013-02-17 21:10:00,
2013-02-17 16:15:00,46.4,16.7,30.16,North,0,0.0,2.5,30,0.00,,,0.00,WUHU216HW,2013-02-17 21:15:00,
2013-02-17 16:20:00,46.3,17.3,30.16,SSW,203,0.2,2.5,31,0.00,,,0.00,WUHU216HW,2013-02-17 21:20:00,
2013-02-17 16:25:00,46.4,17.4,30.16,NNW,338,0.7,2.0,31,0.00,,,0.00,WUHU216HW,2013-02-17 21:25:00,
2013-02-17 16:30:00,46.4,15.9,30.16,North,0,4.9,4.9,29,0.00,,,0.00,WUHU216HW,2013-02-17 21:30:00,
2013-02-17 16:35:00,46.3,16.6,30.16,NW,315,3.4,4.9,30,0.00,,,0.00,WUHU216HW,2013-02-17 21:35:00,
2013-02-17 16:40:00,46.1,16.4,30.16,West,270,1.1,4.9,30,0.00,,,0.00,WUHU216HW,2013-02-17 21:40:00,
2013-02-17 16:45:00,45.9,16.9,30.16,NE,45,0.2,3.4,31,0.00,,,0.00,WUHU216HW,2013-02-17 21:45:00,
2013-02-17 16:50:00,45.7,16.7,30.16,SW,225,3.1,3.1,31,0.00,,,0.00,WUHU216HW,2013-02-17 21:50:00,
2013-02-17 16:55:00,45.7,17.5,30.16,SW,225,0.4,3.1,32,0.00,,,0.00,WUHU216HW,2013-02-17 21:55:00,
2013-02-17 17:00:00,45.7,16.7,30.16,NW,315,2.7,2.7,31,0.00,,,0.00,WUHU216HW,2013-02-17 22:00:00,
2013-02-17 17:05:00,45.7,16.7,30.16,WSW,248,1.1,2.7,31,0.00,,,0.00,WUHU216HW,2013-02-17 22:05:00,
2013-02-17 17:10:00,45.7,17.5,30.16,SW,225,1.1,2.7,32,0.00,,,0.00,WUHU216HW,2013-02-17 22:10:00,
2013-02-17 17:15:00,45.7,16.7,30.16,NNW,338,2.2,3.1,31,0.00,,,0.00,WUHU216HW,2013-02-17 22:15:00,
2013-02-17 17:20:00,45.7,17.5,30.16,NW,315,1.1,4.0,32,0.00,,,0.00,WUHU216HW,2013-02-17 22:20:00,
2013-02-17 17:25:00,45.5,17.3,30.17,SSW,203,0.9,4.0,32,0.00,,,0.00,WUHU216HW,2013-02-17 22:25:00,
2013-02-17 17:30:00,45.5,16.6,30.17,SSW,203,2.0,3.4,31,0.00,,,0.00,WUHU216HW,2013-02-17 22:30:00,
2013-02-17 17:35:00,45.2,17.7,30.17,SSW,203,0.4,2.0,33,0.00,,,0.00,WUHU216HW,2013-02-17 22:35:00,
2013-02-17 17:40:00,45.0,17.5,30.17,West,270,0.2,2.0,33,0.00,,,0.00,WUHU216HW,2013-02-17 22:40:00,
2013-02-17 17:45:00,44.8,17.3,30.17,SW,225,2.2,2.2,33,0.00,,,0.00,WUHU216HW,2013-02-17 22:45:00,
2013-02-17 17:50:00,44.6,17.8,30.17,WSW,248,0.4,2.2,34,0.00,,,0.00,WUHU216HW,2013-02-17 22:50:00,
2013-02-17 17:55:00,44.5,16.9,30.17,North,0,0.4,2.2,33,0.00,,,0.00,WUHU216HW,2013-02-17 22:55:00,
2013-02-17 18:00:00,44.1,17.3,30.18,SW,225,0.0,1.6,34,0.00,,,0.00,WUHU216HW,2013-02-17 23:00:00,
2013-02-17 18:05:00,43.7,17.6,30.18,North,0,0.0,1.1,35,0.00,,,0.00,WUHU216HW,2013-02-17 23:05:00,
2013-02-17 18:11:00,43.6,17.5,30.18,North,0,1.3,1.3,35,0.00,,,0.00,WUHU216HW,2013-02-17 23:11:00,
2013-02-17 18:16:00,43.4,17.3,30.18,SSW,203,0.4,1.8,35,0.00,,,0.00,WUHU216HW,2013-02-17 23:16:00,
2013-02-17 18:21:00,43.0,17.6,30.18,SSW,203,1.6,1.8,36,0.00,,,0.00,WUHU216HW,2013-02-17 23:21:00,
2013-02-17 18:26:00,42.8,17.5,30.19,NNE,23,0.0,1.6,36,0.00,,,0.00,WUHU216HW,2013-02-17 23:26:00,
2013-02-17 18:31:00,42.5,17.2,30.19,SSW,203,0.0,1.6,36,0.00,,,0.00,WUHU216HW,2013-02-17 23:31:00,
2013-02-17 18:36:00,41.8,17.2,30.19,SW,225,0.0,0.2,37,0.00,,,0.00,WUHU216HW,2013-02-17 23:36:00,
2013-02-17 18:41:00,41.4,16.9,30.19,SW,225,0.0,1.1,37,0.00,,,0.00,WUHU216HW,2013-02-17 23:41:00,
2013-02-17 18:46:00,41.2,17.4,30.19,North,0,0.0,1.1,38,0.00,,,0.00,WUHU216HW,2013-02-17 23:46:00,
2013-02-17 18:51:00,41.0,17.3,30.19,West,270,0.0,0.2,38,0.00,,,0.00,WUHU216HW,2013-02-17 23:51:00,
2013-02-17 18:56:00,40.7,16.9,30.19,SE,135,0.0,0.0,38,0.00,,,0.00,WUHU216HW,2013-02-17 23:56:00,
2013-02-17 19:01:00,40.1,17.1,30.19,SE,135,0.0,0.0,39,0.00,,,0.00,WUHU216HW,2013-02-18 00:01:00,
2013-02-17 19:06:00,39.6,16.6,30.19,SE,135,0.0,0.0,39,0.00,,,0.00,WUHU216HW,2013-02-18 00:06:00,
2013-02-17 19:11:00,39.1,16.1,30.19,SE,135,0.0,0.0,39,0.00,,,0.00,WUHU216HW,2013-02-18 00:11:00,
2013-02-17 19:16:00,38.5,16.3,30.19,SE,135,0.0,0.0,40,0.00,,,0.00,WUHU216HW,2013-02-18 00:16:00,
2013-02-17 19:21:00,38.2,15.9,30.19,SW,225,0.0,0.0,40,0.00,,,0.00,WUHU216HW,2013-02-18 00:21:00,
2013-02-17 19:26:00,37.8,16.1,30.19,SSW,203,0.0,0.0,41,0.00,,,0.00,WUHU216HW,2013-02-18 00:26:00,
2013-02-17 19:31:00,37.4,16.4,30.19,SSW,203,0.0,0.0,42,0.00,,,0.00,WUHU216HW,2013-02-18 00:31:00,
2013-02-17 19:36:00,37.1,16.0,30.19,SSW,203,0.0,0.0,42,0.00,,,0.00,WUHU216HW,2013-02-18 00:36:00,
2013-02-17 19:41:00,36.9,16.4,30.20,SW,225,0.0,0.0,43,0.00,,,0.00,WUHU216HW,2013-02-18 00:41:00,
2013-02-17 19:46:00,36.9,16.9,30.20,SW,225,0.0,0.0,44,0.00,,,0.00,WUHU216HW,2013-02-18 00:46:00,
2013-02-17 19:51:00,36.5,16.6,30.20,SW,225,0.0,0.0,44,0.00,,,0.00,WUHU216HW,2013-02-18 00:51:00,
2013-02-17 19:56:00,36.2,16.3,30.20,SW,225,0.0,0.0,44,0.00,,,0.00,WUHU216HW,2013-02-18 00:56:00,
2013-02-17 20:01:00,36.0,16.1,30.20,SW,225,0.0,0.0,44,0.00,,,0.00,WUHU216HW,2013-02-18 01:01:00,
2013-02-17 20:06:00,35.8,16.5,30.20,SW,225,0.0,0.2,45,0.00,,,0.00,WUHU216HW,2013-02-18 01:06:00,
2013-02-17 20:11:00,35.5,16.1,30.20,SW,225,0.0,0.2,45,0.00,,,0.00,WUHU216HW,2013-02-18 01:11:00,
2013-02-17 20:16:00,34.9,16.1,30.20,SW,225,0.0,0.0,46,0.00,,,0.00,WUHU216HW,2013-02-18 01:16:00,
2013-02-17 20:21:00,34.7,16.5,30.20,SW,225,0.0,0.0,47,0.00,,,0.00,WUHU216HW,2013-02-18 01:21:00,
2013-02-17 20:26:00,34.6,16.3,30.20,SW,225,0.0,0.0,47,0.00,,,0.00,WUHU216HW,2013-02-18 01:26:00,
2013-02-17 20:31:00,34.2,16.5,30.20,SW,225,0.0,0.0,48,0.00,,,0.00,WUHU216HW,2013-02-18 01:31:00,
2013-02-17 20:36:00,34.0,16.7,30.20,SW,225,0.0,0.0,49,0.00,,,0.00,WUHU216HW,2013-02-18 01:36:00,
2013-02-17 20:41:00,33.8,17.1,30.20,SW,225,0.0,0.0,50,0.00,,,0.00,WUHU216HW,2013-02-18 01:41:00,
2013-02-17 20:46:00,33.8,17.1,30.20,SW,225,0.0,0.0,50,0.00,,,0.00,WUHU216HW,2013-02-18 01:46:00,
2013-02-17 20:51:00,33.7,17.4,30.21,SW,225,0.0,0.0,51,0.00,,,0.00,WUHU216HW,2013-02-18 01:51:00,
2013-02-17 20:56:00,33.5,17.2,30.21,SW,225,0.0,0.0,51,0.00,,,0.00,WUHU216HW,2013-02-18 01:56:00,
2013-02-17 21:01:00,33.1,17.3,30.21,SW,225,0.0,0.0,52,0.00,,,0.00,WUHU216HW,2013-02-18 02:01:00,
2013-02-17 21:06:00,32.9,17.2,30.21,SW,225,0.0,0.0,52,0.00,,,0.00,WUHU216HW,2013-02-18 02:06:00,
2013-02-17 21:11:00,32.8,17.5,30.21,SW,225,0.0,0.0,53,0.00,,,0.00,WUHU216HW,2013-02-18 02:11:00,
2013-02-17 21:16:00,32.4,17.1,30.21,SW,225,0.0,0.0,53,0.00,,,0.00,WUHU216HW,2013-02-18 02:16:00,
2013-02-17 21:21:00,32.0,17.2,30.21,SW,225,0.0,0.0,54,0.00,,,0.00,WUHU216HW,2013-02-18 02:21:00,
2013-02-17 21:26:00,32.0,17.2,30.21,SW,225,0.0,0.0,54,0.00,,,0.00,WUHU216HW,2013-02-18 02:26:00,
2013-02-17 21:31:00,32.0,17.6,30.22,SW,225,0.0,0.0,55,0.00,,,0.00,WUHU216HW,2013-02-18 02:31:00,
2013-02-17 21:36:00,32.0,17.6,30.22,SW,225,0.0,0.0,55,0.00,,,0.00,WUHU216HW,2013-02-18 02:36:00,
2013-02-17 21:41:00,31.9,17.9,30.22,SW,225,0.0,0.0,56,0.00,,,0.00,WUHU216HW,2013-02-18 02:41:00,
2013-02-17 21:46:00,31.9,17.9,30.22,SW,225,0.0,0.0,56,0.00,,,0.00,WUHU216HW,2013-02-18 02:46:00,
2013-02-17 21:51:00,31.9,17.9,30.22,SW,225,0.0,0.0,56,0.00,,,0.00,WUHU216HW,2013-02-18 02:51:00,
2013-02-17 21:56:00,31.7,17.7,30.22,WSW,248,0.0,0.0,56,0.00,,,0.00,WUHU216HW,2013-02-18 02:56:00,
2013-02-17 22:01:00,31.3,17.4,30.22,WSW,248,0.0,0.0,56,0.00,,,0.00,WUHU216HW,2013-02-18 03:01:00,
2013-02-17 22:06:00,31.0,17.5,30.22,WSW,248,0.0,0.0,57,0.00,,,0.00,WUHU216HW,2013-02-18 03:06:00,
2013-02-17 22:11:00,30.8,17.3,30.23,SW,225,0.0,0.0,57,0.00,,,0.00,WUHU216HW,2013-02-18 03:11:00,
2013-02-17 22:16:00,30.6,17.1,30.23,SW,225,0.0,0.0,57,0.00,,,0.00,WUHU216HW,2013-02-18 03:16:00,
2013-02-17 22:21:00,30.2,17.2,30.23,SW,225,0.0,0.0,58,0.00,,,0.00,WUHU216HW,2013-02-18 03:21:00,
2013-02-17 22:26:00,30.1,17.5,30.23,SW,225,0.0,0.0,59,0.00,,,0.00,WUHU216HW,2013-02-18 03:26:00,
2013-02-17 22:31:00,29.9,17.6,30.24,SW,225,0.0,0.0,60,0.00,,,0.00,WUHU216HW,2013-02-18 03:31:00,
2013-02-17 22:36:00,30.1,17.8,30.23,SW,225,0.0,0.0,60,0.00,,,0.00,WUHU216HW,2013-02-18 03:36:00,
2013-02-17 22:41:00,30.1,18.2,30.23,SW,225,0.0,0.0,61,0.00,,,0.00,WUHU216HW,2013-02-18 03:41:00,
2013-02-17 22:46:00,29.9,18.0,30.23,SW,225,0.0,0.0,61,0.00,,,0.00,WUHU216HW,2013-02-18 03:46:00,
2013-02-17 22:51:00,29.7,18.3,30.23,SW,225,0.0,0.0,62,0.00,,,0.00,WUHU216HW,2013-02-18 03:51:00,
2013-02-17 22:56:00,29.7,18.3,30.23,SW,225,0.0,0.0,62,0.00,,,0.00,WUHU216HW,2013-02-18 03:56:00,
2013-02-17 23:01:00,29.9,18.4,30.23,SW,225,0.0,0.0,62,0.00,,,0.00,WUHU216HW,2013-02-18 04:01:00,
2013-02-17 23:06:00,29.5,18.5,30.23,SW,225,0.0,0.0,63,0.00,,,0.00,WUHU216HW,2013-02-18 04:06:00,
2013-02-17 23:11:00,29.3,18.3,30.23,SW,225,0.0,0.0,63,0.00,,,0.00,WUHU216HW,2013-02-18 04:11:00,
2013-02-17 23:16:00,29.2,18.1,30.23,SW,225,0.0,0.0,63,0.00,,,0.00,WUHU216HW,2013-02-18 04:16:00,
2013-02-17 23:21:00,29.2,18.5,30.23,SW,225,0.0,0.0,64,0.00,,,0.00,WUHU216HW,2013-02-18 04:21:00,
2013-02-17 23:26:00,29.3,18.6,30.23,SW,225,0.0,0.0,64,0.00,,,0.00,WUHU216HW,2013-02-18 04:26:00,
2013-02-17 23:31:00,29.2,18.5,30.23,SW,225,0.0,0.0,64,0.00,,,0.00,WUHU216HW,2013-02-18 04:31:00,
2013-02-17 23:36:00,29.2,18.5,30.23,SW,225,0.0,0.0,64,0.00,,,0.00,WUHU216HW,2013-02-18 04:36:00,
2013-02-17 23:41:00,28.8,18.6,30.23,SW,225,0.0,0.0,65,0.00,,,0.00,WUHU216HW,2013-02-18 04:41:00,
2013-02-17 23:46:00,28.8,18.6,30.22,SW,225,0.0,0.0,65,0.00,,,0.00,WUHU216HW,2013-02-18 04:46:00,
2013-02-17 23:51:00,28.6,18.4,30.23,SW,225,0.0,0.0,65,0.00,,,0.00,WUHU216HW,2013-02-18 04:51:00,
2013-02-17 23:56:00,28.4,18.5,30.23,SW,225,0.0,0.0,66,0.00,,,0.00,WUHU216HW,2013-02-18 04:56:00,